Find Hispasat 1A

NORAD ID: 22116 Int'l Des: 1992-060 Owner: HISP Country: E operational
HEOCIRCULAR

リアルタイム位置

3D地球を読み込み中...

Hispasat 1Aについて

説明を読み込み中...

次回通過

Passes for default location (London). Set your location on the main map for personalized predictions.

高度履歴

Loading altitude history...

軌道要素

1 22116U 92060A 26121.51850345 -.00000314 00000-0 00000+0 0 9990
2 22116 14.1629 10.6113 0006131 328.9276 216.1376 0.99320000119030
Epoch: May 1, 2026 • Age: 16 hours

現在のステータス

高度 36059.5 km
速度 3.06 km/s
衛星直下点 13.33°N, 146.73°E
打ち上げ日 Sep 10, 1992
運用期間 33.6 years
タイプ other

技術仕様

分類 Payload
質量 2194.00 kg
乾燥質量 1013.00 kg
総質量 2194.00 kg
長さ 2.00 m
直径 1.70 m
スパン 22.30 m
形状 Box + 2 Pan
製造者 MMST/BAES
バスタイプ Eurostar 2000
フェーズステータス In Orbit
所有者/国 HISP/E

Most Searched